.
WxDataArchive / Data Records for 2007-03-07
2007-03-06 March 2007 2007-03-08

Data Records for Wednesday, 07 March 2007

Time	Temp	Chill	HIndex	Humid	Dewpt	 Wind 	HiWind	WindDir	Rain 	Barom 
-----	----	-----	------	-----	-----	------	------	-------	-----	----- 
00:00	21.3	21.3	21.3	78	15.5	2	4	90	0.00	30.273 
00:05	21.3	21.3	21.3	80	16.1	1	4	90	0.00	30.272 
00:10	21.1	21.1	21.1	81	16.2	1	2	112	0.00	30.273 
00:15	21.1	21.1	21.1	83	16.8	1	2	112	0.00	30.272 
00:20	21.0	21.0	21.0	83	16.7	2	5	112	0.00	30.271 
00:25	20.8	20.8	20.8	84	16.7	2	4	112	0.00	30.267 
00:30	20.8	20.8	20.8	85	17.0	2	4	90	0.00	30.257 
00:35	20.8	20.8	20.8	85	17.0	2	5	112	0.00	30.255 
00:40	20.8	20.8	20.8	86	17.3	1	4	90	0.00	30.257 
00:45	20.8	20.8	20.8	86	17.3	1	6	112	0.00	30.256 
00:50	20.8	20.8	20.8	86	17.3	2	5	90	0.00	30.254 
00:55	20.8	20.8	20.8	86	17.3	1	5	90	0.00	30.256 
01:00	20.8	20.8	20.8	86	17.3	1	6	90	0.00	30.256 
01:05	20.8	20.8	20.8	86	17.3	1	3	90	0.00	30.254 
01:10	20.8	20.8	20.8	86	17.3	1	4	90	0.00	30.252 
01:15	20.8	20.8	20.8	86	17.3	1	3	68	0.00	30.250 
01:20	20.6	20.6	20.6	86	17.1	1	4	90	0.00	30.249 
01:25	20.6	20.6	20.6	86	17.1	1	4	112	0.00	30.253 
01:30	20.5	20.5	20.5	86	17.0	1	4	68	0.00	30.249 
01:35	20.5	20.5	20.5	85	16.7	2	6	112	0.00	30.251 
01:40	20.5	20.5	20.5	86	17.0	1	3	68	0.00	30.247 
01:45	20.5	20.5	20.5	86	17.0	1	2	90	0.00	30.242 
01:50	20.5	20.5	20.5	85	16.7	2	6	112	0.00	30.241 
01:55	20.5	20.5	20.5	85	16.7	1	4	90	0.00	30.239 
02:00	20.5	20.5	20.5	85	16.7	1	5	90	0.00	30.238 
02:05	20.5	20.5	20.5	86	17.0	2	6	112	0.00	30.238 
02:10	20.5	20.5	20.5	85	16.7	1	7	90	0.00	30.238 
02:15	20.5	20.5	20.5	85	16.7	2	7	90	0.00	30.240 
02:20	20.5	20.5	20.5	85	16.7	1	4	68	0.00	30.239 
02:25	20.5	20.5	20.5	85	16.7	2	5	112	0.00	30.240 
02:30	20.5	20.5	20.5	85	16.7	1	4	112	0.00	30.239 
02:35	20.5	20.5	20.5	85	16.7	2	4	90	0.00	30.238 
02:40	20.5	20.5	20.5	85	16.7	2	7	112	0.00	30.234 
02:45	20.5	20.5	20.5	85	16.7	2	5	112	0.00	30.232 
02:50	20.5	20.5	20.5	85	16.7	2	7	90	0.00	30.231 
02:55	20.3	20.3	20.3	85	16.5	2	10	112	0.00	30.232 
03:00	20.3	20.3	20.3	85	16.5	1	3	90	0.00	30.226 
03:05	20.5	20.5	20.5	85	16.7	1	5	112	0.00	30.224 
03:10	20.5	20.5	20.5	85	16.7	2	7	112	0.00	30.222 
03:15	20.3	20.3	20.3	85	16.5	2	7	112	0.00	30.224 
03:20	20.3	20.3	20.3	85	16.5	1	6	45	0.00	30.221 
03:25	20.3	20.3	20.3	85	16.5	2	5	112	0.00	30.220 
03:30	20.3	20.3	20.3	86	16.8	2	4	112	0.00	30.217 
03:35	20.3	20.3	20.3	86	16.8	2	6	112	0.00	30.216 
03:40	20.3	20.3	20.3	86	16.8	2	5	112	0.00	30.215 
03:45	20.3	20.3	20.3	86	16.8	1	2	112	0.00	30.213 
03:50	20.5	20.5	20.5	86	17.0	1	3	112	0.00	30.211 
03:55	20.3	20.3	20.3	86	16.8	2	4	90	0.00	30.208 
04:00	20.5	20.5	20.5	86	17.0	1	5	90	0.00	30.206 
04:05	20.5	20.5	20.5	86	17.0	1	4	112	0.00	30.206 
04:10	20.5	20.5	20.5	86	17.0	1	4	112	0.00	30.206 
04:15	20.5	20.5	20.5	86	17.0	2	4	112	0.00	30.206 
04:20	20.5	20.5	20.5	86	17.0	2	6	112	0.00	30.205 
04:25	20.3	20.3	20.3	86	16.8	1	4	112	0.00	30.205 
04:30	20.5	20.5	20.5	86	17.0	2	4	112	0.00	30.205 
04:35	20.5	20.5	20.5	86	17.0	2	4	112	0.00	30.203 
04:40	20.5	20.5	20.5	86	17.0	1	3	90	0.00	30.206 
04:45	20.5	20.5	20.5	86	17.0	1	4	90	0.00	30.203 
04:50	20.3	20.3	20.3	86	16.8	2	5	90	0.00	30.201 
04:55	20.3	20.3	20.3	86	16.8	2	5	112	0.00	30.201 
05:00	20.3	20.3	20.3	86	16.8	1	3	90	0.00	30.199 
05:05	20.3	20.3	20.3	86	16.8	1	4	112	0.00	30.201 
05:10	20.2	20.2	20.2	86	16.7	1	2	68	0.00	30.196 
05:15	20.2	20.2	20.2	86	16.7	1	4	112	0.00	30.194 
05:20	20.2	20.2	20.2	86	16.7	1	2	90	0.00	30.192 
05:25	20.0	20.0	20.0	86	16.5	2	5	90	0.00	30.193 
05:30	19.9	19.9	19.9	86	16.4	2	5	90	0.00	30.191 
05:35	19.7	19.7	19.7	86	16.2	1	4	112	0.00	30.188 
05:40	19.7	19.7	19.7	86	16.2	2	5	112	0.00	30.185 
05:45	19.5	19.5	19.5	86	16.0	1	4	90	0.00	30.182 
05:50	19.5	19.5	19.5	86	16.0	3	5	112	0.00	30.183 
05:55	19.5	19.5	19.5	86	16.0	2	4	112	0.00	30.186 
06:00	19.5	19.5	19.5	86	16.0	2	5	90	0.00	30.182 
06:05	19.5	19.5	19.5	86	16.0	1	4	90	0.00	30.183 
06:10	19.5	19.5	19.5	86	16.0	1	4	90	0.00	30.183 
06:15	19.5	19.5	19.5	86	16.0	2	4	112	0.00	30.183 
06:20	19.5	19.5	19.5	86	16.0	1	5	112	0.00	30.184 
06:25	19.5	19.5	19.5	86	16.0	1	4	112	0.00	30.185 
06:30	19.5	19.5	19.5	86	16.0	3	7	112	0.00	30.185 
06:35	19.4	19.4	19.4	86	15.9	2	6	90	0.00	30.185 
06:40	19.4	19.4	19.4	86	15.9	1	4	112	0.00	30.179 
06:45	19.4	19.4	19.4	86	15.9	1	4	112	0.00	30.181 
06:50	19.2	19.2	19.2	86	15.7	1	6	68	0.00	30.180 
06:55	19.2	19.2	19.2	86	15.7	1	4	112	0.00	30.181 
07:00	19.2	19.2	19.2	86	15.7	2	4	45	0.00	30.184 
07:05	19.1	19.1	19.1	86	15.6	2	6	22	0.00	30.185 
07:10	19.1	19.1	19.1	86	15.6	1	4	112	0.00	30.185 
07:15	19.1	19.1	19.1	85	15.3	1	5	112	0.00	30.184 
07:20	18.9	18.9	18.9	85	15.2	2	6	112	0.00	30.190 
07:25	18.9	18.9	18.9	85	15.2	2	6	112	0.00	30.188 
07:30	18.9	18.9	18.9	85	15.2	1	4	45	0.00	30.191 
07:35	18.9	18.9	18.9	85	15.2	1	4	112	0.00	30.192 
07:40	19.1	19.1	19.1	85	15.3	2	5	90	0.00	30.192 
07:45	19.1	19.1	19.1	85	15.3	1	9	112	0.00	30.193 
07:50	19.1	19.1	19.1	85	15.3	2	5	112	0.00	30.193 
07:55	19.1	19.1	19.1	85	15.3	1	4	112	0.00	30.195 
08:00	19.2	19.2	19.2	85	15.4	1	5	112	0.00	30.198 
08:05	19.2	19.2	19.2	84	15.2	2	5	112	0.00	30.202 
08:10	19.2	19.2	19.2	84	15.2	1	4	22	0.00	30.199 
08:15	19.2	19.2	19.2	84	15.2	1	5	45	0.00	30.199 
08:20	19.4	19.4	19.4	84	15.4	1	4	112	0.00	30.201 
08:25	19.4	19.4	19.4	84	15.4	2	7	90	0.00	30.203 
08:30	19.5	19.5	19.5	84	15.5	1	4	90	0.00	30.206 
08:35	19.7	19.7	19.7	83	15.4	2	7	68	0.00	30.207 
08:40	19.7	19.7	19.7	83	15.4	1	4	90	0.00	30.209 
08:45	19.9	19.9	19.9	83	15.6	2	6	112	0.00	30.211 
08:50	19.9	19.9	19.9	83	15.6	3	9	90	0.00	30.211 
08:55	19.9	19.9	19.9	83	15.6	3	7	112	0.00	30.217 
09:00	20.2	20.2	20.2	83	15.9	1	5	90	0.00	30.215 
09:05	20.5	20.5	20.5	82	15.9	3	6	112	0.00	30.218 
09:10	20.6	20.6	20.6	82	16.0	1	5	112	0.00	30.220 
09:15	20.8	20.8	20.8	81	15.9	2	6	45	0.00	30.221 
09:20	20.6	20.6	20.6	82	16.0	2	5	45	0.00	30.222 
09:25	20.8	20.8	20.8	81	15.9	2	6	112	0.00	30.222 
09:30	20.8	20.8	20.8	81	15.9	3	7	112	0.00	30.222 
09:35	21.1	21.1	21.1	82	16.5	2	6	112	0.00	30.222 
09:40	21.1	21.1	21.1	82	16.5	2	6	112	0.00	30.223 
09:45	21.3	21.3	21.3	81	16.4	2	10	135	0.00	30.224 
09:50	21.4	21.4	21.4	81	16.5	2	6	112	0.00	30.225 
09:55	21.6	21.6	21.6	81	16.7	1	4	90	0.00	30.228 
10:00	21.9	21.9	21.9	80	16.7	2	7	90	0.00	30.230 
10:05	21.9	21.9	21.9	80	16.7	1	5	45	0.00	30.232 
10:10	22.2	22.2	22.2	80	17.0	1	5	112	0.00	30.232 
10:15	22.2	22.2	22.2	79	16.7	3	6	112	0.00	30.235 
10:20	22.2	22.2	22.2	79	16.7	2	6	112	0.00	30.236 
10:25	22.2	22.2	22.2	79	16.7	2	6	68	0.00	30.236 
10:30	22.2	16.8	22.2	78	16.4	4	7	112	0.00	30.237 
10:35	22.2	16.8	22.2	79	16.7	4	10	112	0.00	30.237 
10:40	22.7	22.7	22.7	80	17.5	2	6	112	0.00	30.240 
10:45	23.0	23.0	23.0	78	17.2	2	5	112	0.00	30.244 
10:50	23.3	23.3	23.3	78	17.5	2	7	112	0.00	30.245 
10:55	23.6	23.6	23.6	77	17.5	3	9	90	0.00	30.245 
11:00	23.9	23.9	23.9	78	18.1	2	8	112	0.00	30.248 
11:05	24.1	24.1	24.1	76	17.7	3	8	112	0.00	30.251 
11:10	24.5	24.5	24.5	77	18.3	2	6	112	0.00	30.252 
11:15	24.8	24.8	24.8	75	18.0	2	7	112	0.00	30.251 
11:20	25.0	25.0	25.0	75	18.2	2	7	112	0.01	30.251 
11:25	25.4	25.4	25.4	74	18.3	1	5	45	0.00	30.252 
11:30	25.8	25.8	25.8	72	18.0	1	4	22	0.00	30.251 
11:35	25.8	25.8	25.8	71	17.7	3	6	90	0.00	30.252 
11:40	25.7	25.7	25.7	73	18.3	3	8	112	0.00	30.252 
11:45	26.0	26.0	26.0	72	18.2	3	6	112	0.00	30.254 
11:50	26.1	26.1	26.1	72	18.3	2	5	112	0.00	30.256 
11:55	26.6	26.6	26.6	71	18.5	2	7	90	0.00	30.255 
12:00	26.6	26.6	26.6	68	17.5	2	5	45	0.00	30.258 
12:05	26.9	26.9	26.9	69	18.1	2	7	112	0.00	30.258 
12:10	27.0	27.0	27.0	69	18.2	2	4	45	0.00	30.259 
12:15	26.7	26.7	26.7	69	17.9	2	5	112	0.01	30.258 
12:20	26.7	26.7	26.7	67	17.2	1	4	0	0.00	30.261 
12:25	27.0	27.0	27.0	67	17.5	2	4	112	0.00	30.264 
12:30	27.2	27.2	27.2	69	18.4	1	4	68	0.00	30.265 
12:35	27.5	27.5	27.5	68	18.3	2	6	90	0.00	30.265 
12:40	27.5	27.5	27.5	66	17.7	1	3	22	0.00	30.265 
12:45	27.6	27.6	27.6	65	17.4	2	5	22	0.00	30.265 
12:50	27.6	27.6	27.6	63	16.7	1	5	45	0.00	30.264 
12:55	27.8	27.8	27.8	64	17.2	1	4	0	0.00	30.264 
13:00	27.9	27.9	27.9	64	17.3	2	6	22	0.00	30.264 
13:05	28.1	28.1	28.1	63	17.2	1	4	0	0.00	30.265 
13:10	27.8	27.8	27.8	63	16.9	1	4	45	0.00	30.265 
13:15	27.9	27.9	27.9	62	16.6	2	4	45	0.00	30.264 
13:20	27.9	27.9	27.9	61	16.2	2	9	22	0.00	30.264 
13:25	28.1	28.1	28.1	63	17.2	1	4	45	0.00	30.257 
13:30	28.2	28.2	28.2	60	16.1	2	9	112	0.00	30.259 
13:35	28.2	28.2	28.2	62	16.9	1	4	22	0.00	30.257 
13:40	28.2	28.2	28.2	59	15.7	3	9	112	0.00	30.260 
13:45	28.4	28.4	28.4	62	17.1	1	4	22	0.00	30.259 
13:50	28.5	28.5	28.5	61	16.8	2	6	45	0.00	30.260 
13:55	28.4	28.4	28.4	62	17.1	2	7	112	0.00	30.256 
14:00	28.5	28.5	28.5	61	16.8	1	5	22	0.00	30.258 
14:05	28.4	28.4	28.4	63	17.4	2	6	112	0.00	30.259 
14:10	28.7	28.7	28.7	61	17.0	1	5	90	0.00	30.260 
14:15	28.7	28.7	28.7	61	17.0	2	6	22	0.00	30.264 
14:20	28.7	28.7	28.7	59	16.2	2	4	45	0.00	30.263 
14:25	28.7	28.7	28.7	62	17.4	1	5	90	0.00	30.264 
14:30	28.8	28.8	28.8	60	16.7	1	6	0	0.00	30.265 
14:35	29.0	29.0	29.0	61	17.3	1	6	68	0.00	30.265 
14:40	29.1	29.1	29.1	61	17.4	2	4	45	0.00	30.266 
14:45	29.3	29.3	29.3	61	17.5	1	6	90	0.00	30.266 
14:50	29.5	29.5	29.5	60	17.3	1	5	90	0.00	30.267 
14:55	29.5	29.5	29.5	59	17.0	1	6	45	0.00	30.267 
15:00	29.4	29.4	29.4	58	16.5	2	8	45	0.00	30.267 
15:05	29.1	29.1	29.1	55	15.0	3	10	112	0.00	30.268 
15:10	29.3	29.3	29.3	57	16.0	1	2	112	0.00	30.270 
15:15	29.3	29.3	29.3	58	16.4	2	6	112	0.00	30.275 
15:20	29.4	29.4	29.4	57	16.1	1	5	112	0.00	30.276 
15:25	29.3	29.3	29.3	58	16.4	1	5	112	0.00	30.278 
15:30	29.0	29.0	29.0	55	14.9	1	4	90	0.00	30.277 
15:35	28.8	28.8	28.8	59	16.3	2	7	112	0.00	30.276 
15:40	29.1	29.1	29.1	58	16.2	1	4	112	0.00	30.277 
15:45	29.5	29.5	29.5	58	16.6	1	3	45	0.00	30.277 
15:50	29.8	29.8	29.8	57	16.4	1	4	45	0.00	30.278 
15:55	30.0	30.0	30.0	57	16.6	1	3	270	0.00	30.277 
16:00	29.7	29.7	29.7	56	15.9	2	7	90	0.00	30.277 
16:05	29.5	29.5	29.5	55	15.3	1	6	45	0.00	30.278 
16:10	29.4	29.4	29.4	56	15.7	2	6	112	0.00	30.276 
16:15	29.1	29.1	29.1	55	15.0	2	6	112	0.00	30.278 
16:20	29.0	29.0	29.0	55	14.9	2	10	112	0.00	30.278 
16:25	28.7	24.3	28.7	51	12.9	4	7	112	0.00	30.278 
16:30	28.5	28.5	28.5	53	13.6	2	6	112	0.00	30.279 
16:35	28.8	28.8	28.8	54	14.3	1	5	112	0.00	30.280 
16:40	28.7	28.7	28.7	53	13.8	1	4	90	0.00	30.280 
16:45	28.2	28.2	28.2	52	12.9	1	3	90	0.00	30.279 
16:50	28.2	28.2	28.2	52	12.9	1	3	68	0.00	30.277 
16:55	28.2	28.2	28.2	53	13.3	2	6	112	0.00	30.276 
17:00	28.2	28.2	28.2	51	12.4	0	3	112	0.00	30.274 
17:05	28.2	28.2	28.2	52	12.9	0	2	45	0.00	30.274 
17:10	28.4	28.4	28.4	52	13.0	0	3	90	0.00	30.274 
17:15	28.2	28.2	28.2	52	12.9	1	3	90	0.00	30.279 
17:20	28.1	28.1	28.1	52	12.8	1	4	112	0.00	30.280 
17:25	27.9	27.9	27.9	53	13.0	1	3	112	0.00	30.279 
17:30	27.8	27.8	27.8	54	13.3	1	4	112	0.00	30.278 
17:35	27.6	27.6	27.6	53	12.7	1	4	112	0.00	30.277 
17:40	27.6	27.6	27.6	54	13.2	0	4	112	0.00	30.279 
17:45	27.6	27.6	27.6	54	13.2	1	3	112	0.00	30.279 
17:50	27.6	27.6	27.6	55	13.6	0	3	112	0.00	30.277 
17:55	27.5	27.5	27.5	55	13.5	1	4	112	0.00	30.277 
18:00	27.3	27.3	27.3	55	13.3	1	3	112	0.00	30.280 
18:05	27.0	27.0	27.0	57	13.8	1	3	112	0.00	30.280 
18:10	26.9	26.9	26.9	56	13.3	2	4	112	0.00	30.279 
18:15	26.7	26.7	26.7	57	13.5	1	2	112	0.00	30.281 
18:20	26.7	26.7	26.7	60	14.7	2	3	90	0.00	30.280 
18:25	26.4	26.4	26.4	60	14.4	1	3	90	0.00	30.278 
18:30	26.3	26.3	26.3	60	14.3	1	2	90	0.00	30.283 
18:35	26.1	26.1	26.1	61	14.5	0	1	90	0.00	30.284 
18:40	26.0	26.0	26.0	62	14.8	0	2	90	0.00	30.288 
18:45	25.8	25.8	25.8	62	14.6	1	2	90	0.00	30.295 
18:50	25.7	25.7	25.7	62	14.5	0	2	90	0.00	30.295 
18:55	25.6	25.6	25.6	63	14.8	0	1	90	0.00	30.294 
19:00	25.4	25.4	25.4	63	14.6	0	1	90	0.00	30.300 
19:05	25.1	25.1	25.1	64	14.7	0	0	---	0.00	30.301 
19:10	24.8	24.8	24.8	64	14.4	0	0	---	0.00	30.301 
19:15	24.4	24.4	24.4	65	14.3	0	0	---	0.00	30.304 
19:20	24.1	24.1	24.1	66	14.4	0	0	---	0.00	30.311 
19:25	23.6	23.6	23.6	66	13.9	0	0	---	0.00	30.318 
19:30	23.3	23.3	23.3	67	14.0	0	0	---	0.00	30.316 
19:35	23.0	23.0	23.0	68	14.0	0	0	---	0.00	30.316 
19:40	22.7	22.7	22.7	69	14.1	0	0	---	0.00	30.318 
19:45	22.5	22.5	22.5	69	13.9	0	0	---	0.00	30.319 
19:50	22.2	22.2	22.2	70	13.9	0	0	---	0.00	30.321 
19:55	21.9	21.9	21.9	71	14.0	0	0	---	0.00	30.320 
20:00	21.8	21.8	21.8	71	13.9	0	0	---	0.00	30.320 
20:05	21.6	21.6	21.6	72	14.0	0	0	---	0.00	30.319 
20:10	21.3	21.3	21.3	73	14.0	0	1	90	0.00	30.322 
20:15	21.3	21.3	21.3	73	14.0	0	0	---	0.00	30.321 
20:20	21.1	21.1	21.1	73	13.8	0	0	---	0.00	30.322 
20:25	21.0	21.0	21.0	74	14.0	0	0	---	0.00	30.323 
20:30	20.8	20.8	20.8	75	14.1	0	0	---	0.00	30.321 
20:35	20.6	20.6	20.6	75	14.0	0	0	---	0.00	30.321 
20:40	20.3	20.3	20.3	75	13.7	0	0	---	0.00	30.321 
20:45	20.2	20.2	20.2	75	13.6	0	0	---	0.00	30.320 
20:50	19.9	19.9	19.9	76	13.6	0	0	---	0.00	30.321 
20:55	19.7	19.7	19.7	77	13.7	0	0	---	0.00	30.322 
21:00	19.7	19.7	19.7	78	14.0	0	0	---	0.00	30.322 
21:05	19.4	19.4	19.4	77	13.4	0	0	---	0.00	30.320 
21:10	19.2	19.2	19.2	77	13.2	0	0	---	0.00	30.324 
21:15	18.9	18.9	18.9	78	13.2	0	0	---	0.00	30.325 
21:20	18.6	18.6	18.6	78	12.9	0	0	---	0.00	30.326 
21:25	18.6	18.6	18.6	80	13.5	0	0	---	0.00	30.327 
21:30	18.6	18.6	18.6	80	13.5	0	0	---	0.00	30.325 
21:35	18.4	18.4	18.4	80	13.3	0	0	---	0.00	30.325 
21:40	18.1	18.1	18.1	80	13.0	0	0	---	0.00	30.328 
21:45	18.0	18.0	18.0	81	13.2	0	0	---	0.00	30.325 
21:50	18.0	18.0	18.0	82	13.5	0	0	---	0.00	30.325 
21:55	17.8	17.8	17.8	82	13.3	0	0	---	0.00	30.327 
22:00	17.7	17.7	17.7	82	13.2	0	0	---	0.00	30.325 
22:05	17.5	17.5	17.5	82	13.0	0	0	---	0.00	30.324 
22:10	17.3	17.3	17.3	82	12.8	0	0	---	0.00	30.323 
22:15	17.0	17.0	17.0	82	12.5	0	0	---	0.00	30.327 
22:20	17.2	17.2	17.2	83	12.9	0	0	---	0.00	30.328 
22:25	17.0	17.0	17.0	84	13.0	0	0	---	0.00	30.329 
22:30	16.9	16.9	16.9	84	12.9	0	0	---	0.00	30.330 
22:35	16.9	16.9	16.9	84	12.9	0	0	---	0.00	30.326 
22:40	16.9	16.9	16.9	84	12.9	0	0	---	0.00	30.325 
22:45	16.9	16.9	16.9	85	13.2	0	0	---	0.00	30.328 
22:50	16.7	16.7	16.7	85	13.0	0	0	---	0.00	30.328 
22:55	16.9	16.9	16.9	85	13.2	0	0	---	0.00	30.330 
23:00	16.7	16.7	16.7	85	13.0	0	0	---	0.00	30.329 
23:05	16.7	16.7	16.7	86	13.3	0	0	---	0.00	30.328 
23:10	16.7	16.7	16.7	86	13.3	0	0	---	0.00	30.327 
23:15	16.9	16.9	16.9	86	13.5	0	0	---	0.00	30.331 
23:20	16.9	16.9	16.9	86	13.5	0	0	---	0.00	30.331 
23:25	16.7	16.7	16.7	86	13.3	0	0	---	0.00	30.332 
23:30	16.5	16.5	16.5	86	13.1	0	0	---	0.00	30.331 
23:35	16.4	16.4	16.4	85	12.7	0	0	---	0.00	30.331 
23:40	16.4	16.4	16.4	86	13.0	0	0	---	0.00	30.334 
23:45	16.4	16.4	16.4	86	13.0	0	0	---	0.00	30.333 
23:50	16.2	16.2	16.2	86	12.8	0	0	---	0.00	30.333 
23:55	16.2	16.2	16.2	86	12.8	0	0	---	0.00	30.332 

CoCoRaHS
IN-AL-39
A2 Web Hosting
Creative Commons License
GoDaddy
Look for:

loaded 2017-10-17 18:30:58 • last modified 2010-11-18 10:43:29
Privacy PolicyDisclaimer
• wx.awcolley.com is powered by PmWiki v.2002016 •
• all content (unless otherwise noted) © 2017 A W Colley